STARLINK-32314, 61709

Orbit data source: Space-Track

STARLINK-32314, 61709 is a payload satellite owned by SpaceX/Seattle (US) in LEO that was launched on Wed, 30 Oct 2024 UTC via an FALCON 9 launch vehicle from the Air Force Eastern Test Range (AFETR). Payloads include a variety of satellites, spacecraft, and rockets equipped with specific instruments for various scientific and technological missions. These include communications satellites like Starlink; space stations such as the ISS; scientific satellites like the Hubble; Earth observation satellites from companies like Planet Labs, Umbra, and HawkEye 360; GPS; miniature CubeSats for education and research; and military/defense satellites.

Loading next visibility...
STARLINK-32314 details
Identifier
61709, 2024-196C
Orbit
LEO
Last TLE update7 hours ago
Origin
Flag of USSpaceX/Seattle (US)
ManufacturerSpaceX/Seattle
MissionOperational spacecraft
Bus & MotorSTARLINK V2M, Unknown motor
Mass730 kg wet, ~700 kg dry
Launch date (UTC)
2024-10-30 (2 months ago)
Launch vehicle
FALCON 9
Launch site
Air Force Eastern Test Range (AFETR)
Object type
Payload
Rocket body
Debris
Shape & HBRUnknown
Radar Cross SectionLarge (>1 m²)

Expand to show TLE details & history

TLE from 7 hours ago
0 STARLINK-32314
1 61709U 24196C   24361.12609780  .00001115  00000-0  37865-4 0  9995
2 61709  53.1620 340.3365 0001898  88.2416 271.8807 15.39620078  9778
Epoch: 2024-12-26T03:01Z
Definitive object data (Epoch: 2024-12-26T03:01:34.849Z)
Latitude0.00001°
Longitude-160.16867°
Altitude448.093 km
Speed7.645 km/s
True Right ascension22h 41m 20s
True Declination0° 00' 00"
Sunlit
Object was in daylight at TLE epoch
Visualization TLE readout
Latitude-28.40741°
Longitude42.18557°
Altitude456.542 km
Speed7.638 km/s
Apparent Right ascension15h 48m 06s
Apparent Declination-62° 17' 38"
Sunlit
Object is in daylight
Visualization observer readout
Local Sidereal Time09:32:43
Azimuth144.859° SSE
Elevation-36.299°
Doppler factor1
Orbital elements
Apogee altitude448.785 km
Perigee altitude446.194 km
Semi-major axis6,825.626 km
Eccentricity0.0001898
Inclination53.162°
RAAN340.3365°
Arg. of periapsis88.2416°
True anomaly271.85896°
Mean anomaly271.8807°
Eccentric anomaly271.86983°
Mean motion3.84884 °/min
BSTAR0.000037865
Orbital period93.53 mins
Loading maneuver chart data...
Loading historical data...
Loading historical data...
Loading historical data...
Loading historical data...
Loading historical data...
Loading historical data...
Loading historical data...

STARLINK-32314 Visibility forecast

Observer location: undefined°, undefined

Span
Click to sort rows by Start time (UTC) header in descending order
Start Az.
Max El. time (UTC)
Max El. Az.
Max El.
End time (UTC)
End Az.
6 mins2024-12-27 00:59:35.273Z205.53° SW2024-12-27 01:02:35.273Z148.794° SSE32.901°2024-12-27 01:05:35.273Z66.55° ENE
4 mins2024-12-27 02:38:35.273Z289.335° WNW2024-12-27 02:40:35.273Z341.243° N23.013°2024-12-27 02:42:35.273Z22.951° NE
4 mins2024-12-27 07:33:35.273Z340.36° N2024-12-27 07:35:35.273Z46.219° ENE29.974°2024-12-27 07:37:35.273Z93.767° ESE
4 mins2024-12-27 09:10:35.273Z273.203° WNW2024-12-27 09:12:35.273Z224.765° SW22.793°2024-12-27 09:14:35.273Z180.854° SSW
|